Tracking 31027 objects as of 19-Jul-2025
HD Live streaming from Space Station
objects crossing your sky now

ATLAS 5 CENTAUR DEB

Track ATLAS 5 CENTAUR DEB now!


NORAD ID: 44692
Int'l Code: 2018-079BE
Perigee: 9,390.8 km
Apogee: 36,808.3 km
Inclination: 11.8 °
Period: 839.2 minutes
Semi major axis: 29470 km
RCS: Unknown
Launch date: October 17, 2018
Source: United States (US)
Launch site: AIR FORCE EASTERN TEST RANGE (AFETR)

Note: This is SATELLITE DEBRIS
Your satellite tracking list
FENGYUN 1C DEB
Track 1 satellite(s)




NASA's NSSDC Master Catalog

Two Line Element Set (TLE):
1 44692U 18079BE  25199.25494059 -.00000118  00000-0  00000+0 0  9994
2 44692  11.8456 100.6278 4651674 193.5909 147.4944  1.71601148 37636
Source of the keplerian elements: AFSPC